Station Historical Data
Daily Summary for January 17, 2018 Units:  Metric    English   Both
« Previous Day
Next Day »
Daily Weekly Monthly Yearly Custom
  High: Low: Average:
Temperature: -17.8 °C -11.8 °C -9.4 °C
Dew Point: -17.8 °C -13.9 °C -11.9 °C
Humidity: Humidity% 76% 82%
Wind Speed: 0km/h 3.2km/h 11.3km/h
Wind Gust: 0km/h - -
Wind- - SW
Pressure: 0 hPa 1021.6 hPa -
Precipitation: 0 mm    
Historical Graphs
 
 
Tabular Data for January 17, 2018
Time Temperature Dew Point Pressure Wind Wind Speed Wind Gust Humidity Rainfall Rate (Hourly)
-17.8 °C -17.8 °C 0 hPa Calm     Humidity% 0 mm
00:04 -8.9 °C -11.6 °C 1030.7 hPa WSW 11.3 km/h 24.1 km/h 81% 0 mm
00:09 -8.9 °C -11.6 °C 1030.4 hPa WSW 9.7 km/h 19.3 km/h 81% 0 mm
00:19 -8.9 °C -11.6 °C 1030.4 hPa South 16.1 km/h 22.5 km/h 81% 0 mm
00:24 -8.9 °C -11.4 °C 1030.4 hPa SW 11.3 km/h 24.1 km/h 82% 0 mm
00:29 -9 °C -11.5 °C 1030.4 hPa SW 12.9 km/h 17.7 km/h 82% 0 mm
00:34 -9.1 °C -11.6 °C 1030.4 hPa South 12.9 km/h 24.1 km/h 82% 0 mm
00:39 -9.1 °C -11.6 °C 1030.4 hPa SW 6.4 km/h 17.7 km/h 82% 0 mm
00:44 -9.2 °C -11.7 °C 1030.4 hPa South 4.8 km/h 17.7 km/h 82% 0 mm
00:49 -9.3 °C -11.8 °C 1030.4 hPa SW 6.4 km/h 17.7 km/h 82% 0 mm
00:54 -9.3 °C -11.6 °C 1030.4 hPa SW 8 km/h 19.3 km/h 83% 0 mm
00:59 -9.4 °C -11.7 °C 1030.4 hPa SW 8 km/h 19.3 km/h 83% 0 mm
01:04 -9.4 °C -11.8 °C 1030.4 hPa SW 14.5 km/h 14.5 km/h 83% 0 mm
01:14 -9.6 °C -11.9 °C 1030.4 hPa SW 9.7 km/h 17.7 km/h 83% 0 mm
01:19 -9.7 °C -12.1 °C 1030.4 hPa SW 4.8 km/h 14.5 km/h 83% 0 mm
01:24 -9.8 °C -12 °C 1030.4 hPa SSW 4.8 km/h 17.7 km/h 84% 0 mm
01:29 -9.8 °C -12 °C 1030.4 hPa SSW 6.4 km/h 17.7 km/h 84% 0 mm
01:34 -9.8 °C -12 °C 1030.4 hPa SSW 6.4 km/h 14.5 km/h 84% 0 mm
01:39 -9.8 °C -12 °C 1030.4 hPa SSW 8 km/h 16.1 km/h 84% 0 mm
01:44 -9.8 °C -12 °C 1030.4 hPa WSW 6.4 km/h 16.1 km/h 84% 0 mm
01:49 -9.8 °C -12 °C 1030.4 hPa SSW 6.4 km/h 16.1 km/h 84% 0 mm
01:54 -9.8 °C -12 °C 1030.4 hPa South 9.7 km/h 14.5 km/h 84% 0 mm
01:59 -9.8 °C -12 °C 1030.4 hPa SW 8 km/h 16.1 km/h 84% 0 mm
02:04 -9.8 °C -12 °C 1030.7 hPa WSW 9.7 km/h 19.3 km/h 84% 0 mm
02:09 -9.8 °C -12 °C 1030.4 hPa SW 9.7 km/h 19.3 km/h 84% 0 mm
02:14 -9.8 °C -12 °C 1030.4 hPa SW 8 km/h 17.7 km/h 84% 0 mm
02:19 -9.9 °C -12.1 °C 1030.7 hPa SW 9.7 km/h 16.1 km/h 84% 0 mm
02:24 -9.9 °C -12.1 °C 1030.7 hPa SW 16.1 km/h 16.1 km/h 84% 0 mm
02:29 -9.9 °C -12.1 °C 1030.7 hPa SW 9.7 km/h 16.1 km/h 84% 0 mm
02:34 -10 °C -12.2 °C 1030.7 hPa SW 8 km/h 19.3 km/h 84% 0 mm
02:39 -10.1 °C -12.2 °C 1030.7 hPa SW 8 km/h 22.5 km/h 84% 0 mm
02:44 -10.1 °C -12.3 °C 1030.7 hPa SW 8 km/h 22.5 km/h 84% 0 mm
02:49 -10.2 °C -12.3 °C 1030.7 hPa SW 8 km/h 14.5 km/h 84% 0 mm
02:59 -10.3 °C -12.4 °C 1031 hPa SSW 8 km/h 17.7 km/h 84% 0 mm
03:04 -10.3 °C -12.5 °C 1031 hPa SW 8 km/h 17.7 km/h 84% 0 mm
03:09 -10.3 °C -12.5 °C 1031 hPa South 4.8 km/h 14.5 km/h 84% 0 mm
03:14 -10.4 °C -12.6 °C 1031 hPa SSW 8 km/h 14.5 km/h 84% 0 mm
03:24 -10.4 °C -12.6 °C 1031 hPa SW 6.4 km/h 16.1 km/h 84% 0 mm
03:29 -10.4 °C -12.6 °C 1031 hPa South 9.7 km/h 14.5 km/h 84% 0 mm
03:34 -10.4 °C -12.6 °C 1031 hPa SW 6.4 km/h 14.5 km/h 84% 0 mm
03:39 -10.4 °C -12.6 °C 1031 hPa South 6.4 km/h 12.9 km/h 84% 0 mm
03:44 -10.5 °C -12.7 °C 1030.7 hPa WSW 8 km/h 14.5 km/h 84% 0 mm
03:49 -10.5 °C -12.7 °C 1030.7 hPa SW 6.4 km/h 11.3 km/h 84% 0 mm
03:54 -10.5 °C -12.6 °C 1030.7 hPa SW 6.4 km/h 14.5 km/h 85% 0 mm
04:04 -10.6 °C -12.7 °C 1030.7 hPa SSW 9.7 km/h 20.9 km/h 84% 0 mm
04:09 -10.6 °C -12.8 °C 1030.7 hPa SW 9.7 km/h 20.9 km/h 84% 0 mm
04:14 -10.7 °C -12.8 °C 1030.4 hPa SW 9.7 km/h 20.9 km/h 84% 0 mm
04:19 -10.7 °C -12.8 °C 1030.4 hPa SSW 8 km/h 20.9 km/h 84% 0 mm
04:29 -10.7 °C -12.8 °C 1030.7 hPa SSW 8 km/h 17.7 km/h 84% 0 mm
04:34 -10.7 °C -12.9 °C 1030.7 hPa SSW 12.9 km/h 17.7 km/h 84% 0 mm
04:39 -10.8 °C -12.9 °C 1030.7 hPa SSW 4.8 km/h 12.9 km/h 84% 0 mm
04:44 -10.8 °C -13 °C 1030.7 hPa SSW 9.7 km/h 16.1 km/h 84% 0 mm
04:49 -10.8 °C -13 °C 1030.7 hPa SW 9.7 km/h 17.7 km/h 84% 0 mm
04:54 -10.8 °C -13 °C 1030.7 hPa SSW 6.4 km/h 17.7 km/h 84% 0 mm
04:59 -10.8 °C -13 °C 1030.7 hPa WSW 8 km/h 17.7 km/h 84% 0 mm
05:04 -10.8 °C -13 °C 1030.7 hPa South 11.3 km/h 19.3 km/h 84% 0 mm
05:09 -10.9 °C -12.9 °C 1030.7 hPa SSW 8 km/h 12.9 km/h 85% 0 mm
05:14 -10.9 °C -12.9 °C 1030.7 hPa SW 8 km/h 16.1 km/h 85% 0 mm
05:19 -10.9 °C -12.9 °C 1030.7 hPa SW 8 km/h 17.7 km/h 85% 0 mm
05:24 -10.9 °C -12.9 °C 1030.7 hPa SSW 9.7 km/h 17.7 km/h 85% 0 mm
05:29 -10.9 °C -12.9 °C 1030.7 hPa SSW 6.4 km/h 17.7 km/h 85% 0 mm
05:34 -10.9 °C -12.9 °C 1030.7 hPa WSW 6.4 km/h 17.7 km/h 85% 0 mm
05:39 -10.9 °C -12.9 °C 1030.7 hPa SSW 8 km/h 14.5 km/h 85% 0 mm
05:44 -11 °C -13.2 °C 1030.7 hPa SSW 9.7 km/h 20.9 km/h 84% 0 mm
05:49 -11.1 °C -13.2 °C 1030.7 hPa SSW 11.3 km/h 20.9 km/h 84% 0 mm
05:54 -11.1 °C -13.2 °C 1031 hPa SSW 8 km/h 20.9 km/h 84% 0 mm
05:59 -11.2 °C -13.3 °C 1031 hPa West 16.1 km/h 22.5 km/h 84% 0 mm
06:04 -11.2 °C -13.2 °C 1030.7 hPa WSW 16.1 km/h 16.1 km/h 85% 0 mm
06:09 -11.3 °C -13.3 °C 1030.7 hPa SSW 6.4 km/h 24.1 km/h 85% 0 mm
06:14 -11.3 °C -13.3 °C 1031 hPa South 4.8 km/h 19.3 km/h 85% 0 mm
06:19 -11.3 °C -13.5 °C 1031 hPa South 8 km/h 17.7 km/h 84% 0 mm
06:34 -11.4 °C -13.6 °C 1030.7 hPa SW 9.7 km/h 17.7 km/h 84% 0 mm
06:39 -11.5 °C -13.5 °C 1031 hPa SW 8 km/h 20.9 km/h 85% 0 mm
06:44 -11.6 °C -13.6 °C 1031 hPa SW 9.7 km/h 20.9 km/h 85% 0 mm
06:59 -11.6 °C -13.8 °C 1030.7 hPa SW 8 km/h 19.3 km/h 84% 0 mm
07:09 -11.7 °C -13.8 °C 1031 hPa SSW 8 km/h 20.9 km/h 84% 0 mm
07:14 -11.7 °C -13.9 °C 1030.7 hPa South 4.8 km/h 16.1 km/h 84% 0 mm
07:19 -11.8 °C -13.9 °C 1031 hPa SW 8 km/h 20.9 km/h 84% 0 mm
07:24 -11.8 °C -13.9 °C 1031 hPa WSW 6.4 km/h 17.7 km/h 84% 0 mm
07:29 -11.8 °C -13.9 °C 1030.7 hPa SSW 8 km/h 17.7 km/h 84% 0 mm
07:34 -11.8 °C -13.9 °C 1030.7 hPa SSW 8 km/h 16.1 km/h 84% 0 mm
07:44 -11.8 °C -13.9 °C 1030.7 hPa SSW 4.8 km/h 17.7 km/h 84% 0 mm
07:49 -11.8 °C -13.9 °C 1030.7 hPa SW 9.7 km/h 17.7 km/h 84% 0 mm
07:54 -11.8 °C -13.9 °C 1030.7 hPa SSW 8 km/h 20.9 km/h 84% 0 mm
07:59 -11.8 °C -13.9 °C 1030.7 hPa SSW 8 km/h 12.9 km/h 84% 0 mm
08:04 -11.7 °C -13.8 °C 1030.7 hPa SSW 6.4 km/h 14.5 km/h 84% 0 mm
08:09 -11.7 °C -13.9 °C 1030.7 hPa SSW 8 km/h 14.5 km/h 84% 0 mm
08:14 -11.7 °C -13.9 °C 1030.7 hPa SSW 8 km/h 19.3 km/h 84% 0 mm
08:19 -11.7 °C -13.8 °C 1031 hPa SSE 9.7 km/h 14.5 km/h 84% 0 mm
08:24 -11.7 °C -13.8 °C 1030.7 hPa SW 9.7 km/h 14.5 km/h 84% 0 mm
08:29 -11.6 °C -13.8 °C 1030.7 hPa SSW 4.8 km/h 11.3 km/h 84% 0 mm
08:34 -11.5 °C -13.5 °C 1030.7 hPa SSW 6.4 km/h 16.1 km/h 85% 0 mm
08:39 -11.4 °C -13.4 °C 1030.7 hPa SSW 8 km/h 16.1 km/h 85% 0 mm
08:44 -11.4 °C -13.6 °C 1030.7 hPa SSW 4.8 km/h 14.5 km/h 84% 0 mm
08:49 -11.4 °C -13.6 °C 1030.7 hPa South 6.4 km/h 14.5 km/h 84% 0 mm
08:59 -11.3 °C -13.5 °C 1030.7 hPa SW 14.5 km/h 16.1 km/h 84% 0 mm
09:04 -11.3 °C -13.4 °C 1030.7 hPa SW 3.2 km/h 19.3 km/h 84% 0 mm
09:09 -11.3 °C -13.4 °C 1030.7 hPa SSW 8 km/h 19.3 km/h 84% 0 mm
09:14 -11.2 °C -13.3 °C 1030.7 hPa SSW 6.4 km/h 17.7 km/h 84% 0 mm
09:19 -11.1 °C -13.2 °C 1031 hPa SSE 8 km/h 14.5 km/h 84% 0 mm
09:24 -11.1 °C -13.2 °C 1031 hPa SW 8 km/h 17.7 km/h 84% 0 mm
09:29 -10.9 °C -13.1 °C 1031 hPa SSW 9.7 km/h 12.9 km/h 84% 0 mm
09:34 -10.9 °C -13.1 °C 1031 hPa SSW 8 km/h 17.7 km/h 84% 0 mm
09:39 -10.8 °C -13 °C 1031 hPa SSW 8 km/h 17.7 km/h 84% 0 mm
09:44 -10.7 °C -12.9 °C 1031 hPa SSW 8 km/h 16.1 km/h 84% 0 mm
09:49 -10.7 °C -12.8 °C 1031 hPa SW 9.7 km/h 22.5 km/h 84% 0 mm
09:54 -10.6 °C -12.7 °C 1031 hPa WSW 4.8 km/h 16.1 km/h 84% 0 mm
09:59 -10.4 °C -12.6 °C 1031 hPa SW 9.7 km/h 17.7 km/h 84% 0 mm
10:04 -10.4 °C -12.6 °C 1031 hPa South 3.2 km/h 17.7 km/h 84% 0 mm
10:09 -10.2 °C -12.4 °C 1031 hPa SSW 8 km/h 17.7 km/h 84% 0 mm
10:14 -10 °C -12.2 °C 1031 hPa SW 6.4 km/h 17.7 km/h 84% 0 mm
10:19 -9.9 °C -12.2 °C 1031 hPa SW 8 km/h 19.3 km/h 83% 0 mm
10:24 -9.7 °C -12.1 °C 1031 hPa SW 9.7 km/h 19.3 km/h 83% 0 mm
10:29 -9.5 °C -11.8 °C 1031 hPa SW 9.7 km/h 19.3 km/h 83% 0 mm
10:34 -9.2 °C -11.6 °C 1031 hPa SW 9.7 km/h 20.9 km/h 83% 0 mm
10:39 -8.9 °C -11.4 °C 1031 hPa SW 11.3 km/h 22.5 km/h 82% 0 mm
10:44 -9 °C -11.5 °C 1031 hPa SW 11.3 km/h 25.7 km/h 82% 0 mm
10:54 -8.7 °C -11.2 °C 1031 hPa SW 11.3 km/h 19.3 km/h 82% 0 mm
10:59 -8.7 °C -11.2 °C 1031 hPa SW 11.3 km/h 19.3 km/h 82% 0 mm
11:04 -8.7 °C -11.2 °C 1031 hPa WSW 9.7 km/h 25.7 km/h 82% 0 mm
11:09 -8.8 °C -11.5 °C 1031 hPa SW 12.9 km/h 25.7 km/h 81% 0 mm
11:14 -8.9 °C -11.6 °C 1031 hPa South 8 km/h 25.7 km/h 81% 0 mm
11:24 -9.1 °C -11.7 °C 1030.7 hPa SW 11.3 km/h 25.7 km/h 81% 0 mm
11:34 -9.3 °C -11.8 °C 1030.7 hPa SW 12.9 km/h 24.1 km/h 82% 0 mm
11:39 -9.3 °C -11.8 °C 1030.7 hPa SW 12.9 km/h 22.5 km/h 82% 0 mm
11:44 -9.3 °C -11.8 °C 1030.7 hPa SSW 6.4 km/h 20.9 km/h 82% 0 mm
11:49 -9.2 °C -11.7 °C 1030.4 hPa SW 8 km/h 20.9 km/h 82% 0 mm
11:54 -9.3 °C -11.8 °C 1030.4 hPa SSW 8 km/h 27.4 km/h 82% 0 mm
11:59 -9.3 °C -11.7 °C 1030 hPa SW 11.3 km/h 27.4 km/h 83% 0 mm
12:09 -9.2 °C -11.6 °C 1030 hPa SW 9.7 km/h 20.9 km/h 83% 0 mm
12:14 -9.1 °C -11.4 °C 1029.7 hPa SW 17.7 km/h 20.9 km/h 83% 0 mm
12:19 -8.9 °C -11.1 °C 1029.7 hPa SW 11.3 km/h 20.9 km/h 84% 0 mm
12:24 -8.6 °C -10.8 °C 1029.3 hPa SW 9.7 km/h 19.3 km/h 84% 0 mm
12:29 -8.2 °C -10.4 °C 1029.3 hPa SW 16.1 km/h 29 km/h 84% 0 mm
12:34 -8.1 °C -10.5 °C 1029.3 hPa SW 14.5 km/h 29 km/h 83% 0 mm
12:39 -7.9 °C -10.3 °C 1029 hPa WSW 12.9 km/h 22.5 km/h 83% 0 mm
12:49 -7.8 °C -10.4 °C 1029 hPa South 8 km/h 22.5 km/h 82% 0 mm
12:54 -7.9 °C -10.6 °C 1029 hPa WSW 14.5 km/h 25.7 km/h 81% 0 mm
13:09 -8.4 °C -11.1 °C 1029 hPa SW 14.5 km/h 29 km/h 81% 0 mm
13:14 -8.5 °C -11 °C 1029 hPa SW 14.5 km/h 29 km/h 82% 0 mm
13:19 -8.5 °C -10.9 °C 1029 hPa SW 14.5 km/h 24.1 km/h 83% 0 mm
13:24 -8.4 °C -10.8 °C 1028.7 hPa South 12.9 km/h 24.1 km/h 83% 0 mm
13:29 -8.3 °C -10.7 °C 1028.7 hPa SW 12.9 km/h 27.4 km/h 83% 0 mm
13:34 -8.2 °C -10.6 °C 1028.7 hPa WSW 19.3 km/h 22.5 km/h 83% 0 mm
13:39 -8.1 °C -10.5 °C 1028.7 hPa SW 12.9 km/h 25.7 km/h 83% 0 mm
13:44 -8.1 °C -10.5 °C 1028.7 hPa SW 12.9 km/h 25.7 km/h 83% 0 mm
13:49 -8.2 °C -10.6 °C 1028.7 hPa WSW 12.9 km/h 32.2 km/h 83% 0 mm
13:54 -8.3 °C -10.7 °C 1028.7 hPa WSW 11.3 km/h 30.6 km/h 83% 0 mm
13:59 -8.2 °C -10.6 °C 1028.3 hPa SW 16.1 km/h 27.4 km/h 83% 0 mm
14:04 -8.2 °C -10.6 °C 1028.3 hPa WSW 9.7 km/h 24.1 km/h 83% 0 mm
14:09 -8.2 °C -10.6 °C 1028.7 hPa South 14.5 km/h 25.7 km/h 83% 0 mm
14:14 -8.1 °C -10.5 °C 1028.3 hPa SW 12.9 km/h 25.7 km/h 83% 0 mm
14:24 -8.1 °C -10.4 °C 1028.7 hPa SW 12.9 km/h 27.4 km/h 83% 0 mm
14:29 -8.1 °C -10.4 °C 1028.3 hPa SSW 11.3 km/h 27.4 km/h 83% 0 mm
14:39 -8.3 °C -10.7 °C 1028.3 hPa South 12.9 km/h 30.6 km/h 83% 0 mm
14:44 -8.3 °C -10.7 °C 1028.3 hPa WSW 14.5 km/h 27.4 km/h 83% 0 mm
14:49 -8.3 °C -10.5 °C 1028 hPa SW 12.9 km/h 27.4 km/h 84% 0 mm
14:54 -8.3 °C -10.6 °C 1028.3 hPa SW 12.9 km/h 27.4 km/h 84% 0 mm
14:59 -8.3 °C -10.6 °C 1028 hPa SW 14.5 km/h 30.6 km/h 84% 0 mm
15:04 -8.4 °C -10.6 °C 1028 hPa SW 14.5 km/h 30.6 km/h 84% 0 mm
15:14 -8.3 °C -10.5 °C 1028.3 hPa SW 19.3 km/h 27.4 km/h 84% 0 mm
15:19 -8.3 °C -10.5 °C 1028 hPa SW 20.9 km/h 24.1 km/h 84% 0 mm
15:24 -8.2 °C -10.4 °C 1028 hPa SW 12.9 km/h 24.1 km/h 84% 0 mm
15:44 -8.2 °C -10.4 °C 1028 hPa WSW 16.1 km/h 25.7 km/h 84% 0 mm
15:49 -8.2 °C -10.4 °C 1027.7 hPa WSW 11.3 km/h 30.6 km/h 84% 0 mm
15:54 -8.2 °C -10.4 °C 1027.7 hPa SW 14.5 km/h 30.6 km/h 84% 0 mm
16:00 -8.2 °C -10.4 °C 1027.7 hPa SW 8 km/h 25.7 km/h 84% 0 mm
16:05 -8.2 °C -10.4 °C 1027.7 hPa SW 12.9 km/h 27.4 km/h 84% 0 mm
16:10 -8.3 °C -10.5 °C 1027.7 hPa SW 12.9 km/h 29 km/h 84% 0 mm
16:19 -8.3 °C -10.6 °C 1027.7 hPa SSW 17.7 km/h 22.5 km/h 84% 0 mm
16:24 -8.3 °C -10.6 °C 1027.3 hPa SW 11.3 km/h 22.5 km/h 84% 0 mm
16:29 -8.3 °C -10.6 °C 1027.3 hPa SSW 9.7 km/h 30.6 km/h 84% 0 mm
16:39 -8.4 °C -10.6 °C 1027.3 hPa South 14.5 km/h 27.4 km/h 84% 0 mm
16:44 -8.4 °C -10.6 °C 1027 hPa WSW 12.9 km/h 27.4 km/h 84% 0 mm
16:49 -8.4 °C -10.6 °C 1027 hPa SW 14.5 km/h 29 km/h 84% 0 mm
16:54 -8.4 °C -10.6 °C 1027.3 hPa SW 8 km/h 24.1 km/h 84% 0 mm
16:59 -8.4 °C -10.4 °C 1027 hPa SW 11.3 km/h 24.1 km/h 85% 0 mm
17:04 -8.4 °C -10.6 °C 1027 hPa SW 12.9 km/h 27.4 km/h 84% 0 mm
17:09 -8.4 °C -10.6 °C 1027 hPa SW 12.9 km/h 27.4 km/h 84% 0 mm
17:14 -8.3 °C -10.5 °C 1027 hPa SW 12.9 km/h 25.7 km/h 84% 0 mm
17:19 -8.3 °C -10.5 °C 1027 hPa SW 14.5 km/h 29 km/h 84% 0 mm
17:24 -8.2 °C -10.4 °C 1027 hPa SW 16.1 km/h 29 km/h 84% 0 mm
17:34 -8.2 °C -10.4 °C 1027 hPa SW 11.3 km/h 22.5 km/h 84% 0 mm
17:39 -8.2 °C -10.4 °C 1026.6 hPa SW 14.5 km/h 29 km/h 84% 0 mm
17:44 -8.1 °C -10.3 °C 1026.6 hPa SW 12.9 km/h 30.6 km/h 84% 0 mm
17:49 -8.1 °C -10.3 °C 1027 hPa WSW 19.3 km/h 30.6 km/h 84% 0 mm
17:54 -8 °C -10.2 °C 1026.6 hPa SW 14.5 km/h 25.7 km/h 84% 0 mm
17:59 -8 °C -10.2 °C 1026.6 hPa WSW 20.9 km/h 27.4 km/h 84% 0 mm
18:04 -8 °C -10.2 °C 1026.3 hPa SW 24.1 km/h 32.2 km/h 84% 0 mm
18:09 -8.1 °C -10.3 °C 1026.3 hPa SW 16.1 km/h 32.2 km/h 84% 0 mm
18:14 -8.1 °C -10.3 °C 1026.3 hPa SW 14.5 km/h 33.8 km/h 84% 0 mm
18:19 -8.1 °C -10.3 °C 1026.3 hPa SW 14.5 km/h 33.8 km/h 84% 0 mm
18:24 -8.1 °C -10.3 °C 1026.3 hPa SW 14.5 km/h 27.4 km/h 84% 0 mm
18:29 -7.9 °C -10.2 °C 1026.3 hPa SW 16.1 km/h 27.4 km/h 84% 0 mm
18:34 -7.9 °C -10.2 °C 1026.3 hPa SW 14.5 km/h 27.4 km/h 84% 0 mm
18:39 -7.9 °C -10.1 °C 1026 hPa South 14.5 km/h 29 km/h 84% 0 mm
18:44 -7.8 °C -10.1 °C 1026 hPa SW 14.5 km/h 32.2 km/h 84% 0 mm
18:49 -7.8 °C -10 °C 1026 hPa WSW 19.3 km/h 27.4 km/h 84% 0 mm
18:54 -7.8 °C -10 °C 1025.6 hPa SSW 12.9 km/h 25.7 km/h 84% 0 mm
18:59 -7.7 °C -9.9 °C 1025.6 hPa SW 12.9 km/h 24.1 km/h 84% 0 mm
19:04 -7.8 °C -10 °C 1025.6 hPa SSW 3.2 km/h 29 km/h 84% 0 mm
19:09 -7.8 °C -10.2 °C 1025.6 hPa SSW 11.3 km/h 27.4 km/h 83% 0 mm
19:14 -8 °C -10.6 °C 1025.3 hPa SSW 6.4 km/h 24.1 km/h 82% 0 mm
19:19 -8.1 °C -10.6 °C 1025.6 hPa SW 11.3 km/h 24.1 km/h 82% 0 mm
19:24 -8.1 °C -10.6 °C 1025.3 hPa SW 11.3 km/h 33.8 km/h 82% 0 mm
19:29 -8.1 °C -10.7 °C 1025.3 hPa SW 12.9 km/h 33.8 km/h 81% 0 mm
19:34 -8.1 °C -10.9 °C 1025.3 hPa SW 12.9 km/h 25.7 km/h 80% 0 mm
19:39 -8.1 °C -11.1 °C 1025.3 hPa SSW 12.9 km/h 27.4 km/h 79% 0 mm
19:44 -8.2 °C -11.3 °C 1024.9 hPa SSW 14.5 km/h 29 km/h 78% 0 mm
19:49 -8.2 °C -11.3 °C 1024.9 hPa South 17.7 km/h 30.6 km/h 78% 0 mm
19:54 -8.3 °C -11.7 °C 1024.9 hPa SW 9.7 km/h 27.4 km/h 77% 0 mm
19:59 -8.4 °C -11.7 °C 1024.9 hPa SSW 12.9 km/h 27.4 km/h 77% 0 mm
20:04 -8.4 °C -11.9 °C 1024.9 hPa SW 22.5 km/h 24.1 km/h 76% 0 mm
20:09 -8.6 °C -12.1 °C 1024.6 hPa South 20.9 km/h 27.4 km/h 76% 0 mm
20:14 -8.7 °C -12.1 °C 1024.6 hPa WSW 4.8 km/h 22.5 km/h 76% 0 mm
20:19 -8.8 °C -12.2 °C 1024.6 hPa SW 9.7 km/h 24.1 km/h 76% 0 mm
20:24 -8.9 °C -12.3 °C 1024.6 hPa SW 11.3 km/h 24.1 km/h 76% 0 mm
20:29 -8.9 °C -12.4 °C 1024.6 hPa SW 11.3 km/h 24.1 km/h 76% 0 mm
20:34 -8.9 °C -12.4 °C 1024.3 hPa SW 11.3 km/h 24.1 km/h 76% 0 mm
20:39 -8.9 °C -12.4 °C 1024.3 hPa SW 11.3 km/h 24.1 km/h 76% 0 mm
20:44 -8.9 °C -12.4 °C 1024.3 hPa SW 11.3 km/h 20.9 km/h 76% 0 mm
20:49 -9 °C -12.4 °C 1024.3 hPa SSW 25.7 km/h 25.7 km/h 76% 0 mm
20:54 -9.1 °C -12.5 °C 1024.3 hPa WSW 9.7 km/h 25.7 km/h 76% 0 mm
20:59 -9.1 °C -12.6 °C 1024.3 hPa SW 11.3 km/h 25.7 km/h 76% 0 mm
21:04 -9.2 °C -12.6 °C 1023.9 hPa SSW 19.3 km/h 22.5 km/h 76% 0 mm
21:09 -9.2 °C -12.6 °C 1023.9 hPa SW 12.9 km/h 20.9 km/h 76% 0 mm
21:14 -9.2 °C -12.6 °C 1023.9 hPa SW 19.3 km/h 24.1 km/h 76% 0 mm
21:19 -9.1 °C -12.6 °C 1023.9 hPa South 9.7 km/h 25.7 km/h 76% 0 mm
21:24 -9.1 °C -12.5 °C 1023.9 hPa SW 12.9 km/h 25.7 km/h 76% 0 mm
21:29 -9 °C -12.4 °C 1023.9 hPa SSW 12.9 km/h 25.7 km/h 76% 0 mm
21:34 -8.9 °C -12.4 °C 1023.9 hPa SW 11.3 km/h 22.5 km/h 76% 0 mm
21:39 -8.9 °C -12.2 °C 1023.6 hPa SW 12.9 km/h 27.4 km/h 77% 0 mm
21:44 -8.8 °C -12.1 °C 1023.6 hPa WSW 12.9 km/h 27.4 km/h 77% 0 mm
21:49 -8.8 °C -12.1 °C 1023.2 hPa WSW 17.7 km/h 30.6 km/h 77% 0 mm
21:54 -8.8 °C -12.1 °C 1023.2 hPa SW 16.1 km/h 29 km/h 77% 0 mm
21:59 -8.7 °C -12 °C 1023.2 hPa SW 12.9 km/h 29 km/h 77% 0 mm
22:04 -8.6 °C -11.7 °C 1023.2 hPa SW 14.5 km/h 27.4 km/h 78% 0 mm
22:09 -8.5 °C -11.7 °C 1022.9 hPa SW 12.9 km/h 27.4 km/h 78% 0 mm
22:14 -8.4 °C -11.6 °C 1022.9 hPa WSW 17.7 km/h 25.7 km/h 78% 0 mm
22:19 -8.4 °C -11.6 °C 1022.9 hPa West 14.5 km/h 30.6 km/h 78% 0 mm
22:24 -8.4 °C -11.6 °C 1022.9 hPa SW 16.1 km/h 24.1 km/h 78% 0 mm
22:29 -8.4 °C -11.6 °C 1022.9 hPa SW 14.5 km/h 29 km/h 78% 0 mm
22:34 -8.3 °C -11.5 °C 1022.6 hPa SW 14.5 km/h 29 km/h 78% 0 mm
22:39 -8.3 °C -11.5 °C 1022.6 hPa SSW 17.7 km/h 30.6 km/h 78% 0 mm
22:44 -8.3 °C -11.4 °C 1022.6 hPa SW 22.5 km/h 32.2 km/h 78% 0 mm
22:49 -8.3 °C -11.3 °C 1022.6 hPa SW 11.3 km/h 29 km/h 79% 0 mm
22:54 -8.3 °C -11.4 °C 1022.6 hPa SSE 12.9 km/h 30.6 km/h 78% 0 mm
22:59 -8.3 °C -11.5 °C 1022.6 hPa SW 17.7 km/h 30.6 km/h 78% 0 mm
23:04 -8.4 °C -11.6 °C 1022.2 hPa SW 16.1 km/h 30.6 km/h 78% 0 mm
23:09 -8.5 °C -11.7 °C 1022.2 hPa SW 16.1 km/h 30.6 km/h 78% 0 mm
23:14 -8.6 °C -11.8 °C 1022.2 hPa SW 16.1 km/h 32.2 km/h 78% 0 mm
23:19 -8.7 °C -11.8 °C 1022.2 hPa SW 12.9 km/h 25.7 km/h 78% 0 mm
23:24 -8.8 °C -11.9 °C 1021.9 hPa SSW 25.7 km/h 30.6 km/h 78% 0 mm
23:29 -8.8 °C -11.8 °C 1022.2 hPa SW 14.5 km/h 32.2 km/h 79% 0 mm
23:34 -8.8 °C -11.8 °C 1021.9 hPa SW 14.5 km/h 32.2 km/h 79% 0 mm
23:39 -8.9 °C -12.1 °C 1021.9 hPa SW 14.5 km/h 33.8 km/h 78% 0 mm
23:44 -8.9 °C -12.1 °C 1021.9 hPa SW 17.7 km/h 33.8 km/h 78% 0 mm
23:49 -9 °C -12.1 °C 1021.9 hPa SW 17.7 km/h 33.8 km/h 78% 0 mm
23:54 -9.1 °C -12.2 °C 1021.6 hPa SW 14.5 km/h 33.8 km/h 78% 0 mm
23:59 -9.2 °C -12.4 °C 1021.6 hPa SW 20.9 km/h 27.4 km/h 77% 0 mm
Buffalo, New York, USA
Compliments of Weather Underground - 2.25 mb